Main page
METAR-TAF:

METAR-TAF

Airports :

Ainsworth Regional Airport

Ainsworth, Nebraska, United States

latitude: 42-35N, longitude: 100-00W, elevation: 2588 ft

Current weather observation

The report was made 32 minutes ago, at 13:35 UTC
Wind 17 mph from the North/Northwest
Temperature 63°F
Humidity 82%
Pressure 30.17 in. Hg
Visibility: 10 miles
Clear sky

METAR: KANW 281335Z AUTO 34015KT 10SM CLR 17/14 A3017 RMK AO2 T01720135

Time: 09:07 (14:07 UTC)


TAF: missing

Weather observations and forecasts of more than 4000 airports (METAR and TAF reports).

The available stations are represented by yellow and red dots on the map.

Hover mouse over dot to see the name of the station.

Then click to see weather observations and forecasts.

To change the map : click on the green buttons with a black cross to zoom in, on the green button with a dash to zoom out, or on the green arrows for adjacent maps.


METAR-TAF: